Time,TemperatureF,DewpointF,PressureIn,WindDirection,WindDirectionDegrees,WindSpeedMPH,WindSpeedGustMPH,Humidity,HourlyPrecipIn,Conditions,Clouds,dailyrainin,SoftwareType,DateUTC
2013-03-17 00:02:00,16.0,10.0,-100.00,NW,325,12.0,14.0,81,0.00,,,0.00,,2013-03-17 05:02:00,
2013-03-17 00:12:00,15.0,10.0,-100.00,NW,315,11.0,13.0,81,0.00,,,0.00,,2013-03-17 05:12:00,
2013-03-17 00:22:00,15.0,10.0,-100.00,NW,325,9.0,12.0,82,0.00,,,0.00,,2013-03-17 05:22:00,
2013-03-17 00:32:00,15.0,10.0,-100.00,NW,325,9.0,11.0,82,0.00,,,0.00,,2013-03-17 05:32:00,
2013-03-17 00:42:00,15.0,10.0,-100.00,NNW,330,8.0,9.0,82,0.00,,,0.00,,2013-03-17 05:42:00,
2013-03-17 00:52:00,14.0,10.0,-100.00,NNW,330,9.0,11.0,82,0.00,,,0.00,,2013-03-17 05:52:00,
2013-03-17 01:02:00,15.0,10.0,-100.00,NW,325,10.0,12.0,82,0.00,,,0.00,,2013-03-17 06:02:00,
2013-03-17 01:12:00,14.0,10.0,-100.00,NNW,330,9.0,12.0,82,0.00,,,0.00,,2013-03-17 06:12:00,
2013-03-17 01:22:00,14.0,10.0,-100.00,NNW,335,9.0,11.0,82,0.00,,,0.00,,2013-03-17 06:22:00,
2013-03-17 01:32:00,14.0,10.0,-100.00,NNW,330,9.0,11.0,83,0.00,,,0.00,,2013-03-17 06:32:00,
2013-03-17 01:42:00,13.0,9.0,-100.00,NNW,335,9.0,12.0,83,0.00,,,0.00,,2013-03-17 06:42:00,
2013-03-17 01:52:00,13.0,9.0,-100.00,NNW,335,7.0,10.0,83,0.00,,,0.00,,2013-03-17 06:52:00,
2013-03-17 02:02:00,13.0,9.0,-100.00,NNW,340,9.0,11.0,83,0.00,,,0.00,,2013-03-17 07:02:00,
2013-03-17 02:12:00,13.0,9.0,-100.00,NNW,335,7.0,11.0,82,0.00,,,0.00,,2013-03-17 07:12:00,
2013-03-17 02:22:00,13.0,9.0,-100.00,NNW,335,7.0,9.0,82,0.00,,,0.00,,2013-03-17 07:22:00,
2013-03-17 02:32:00,13.0,9.0,-100.00,NNW,335,7.0,9.0,82,0.00,,,0.00,,2013-03-17 07:32:00,
2013-03-17 02:42:00,12.0,7.0,-100.00,NNW,335,9.0,11.0,82,0.00,,,0.00,,2013-03-17 07:42:00,
2013-03-17 02:52:00,12.0,9.0,-100.00,NNW,340,9.0,11.0,83,0.00,,,0.00,,2013-03-17 07:52:00,
2013-03-17 03:02:00,12.0,7.0,-100.00,NNW,340,9.0,12.0,83,0.00,,,0.00,,2013-03-17 08:02:00,
2013-03-17 03:12:00,11.0,7.0,-100.00,North,350,9.0,10.0,83,0.00,,,0.00,,2013-03-17 08:12:00,
2013-03-17 03:22:00,11.0,7.0,-100.00,North,355,10.0,11.0,84,0.00,,,0.00,,2013-03-17 08:22:00,
2013-03-17 03:32:00,10.0,7.0,-100.00,North,355,11.0,12.0,84,0.00,,,0.00,,2013-03-17 08:32:00,
2013-03-17 03:42:00,10.0,7.0,-100.00,North,355,11.0,12.0,85,0.00,,,0.00,,2013-03-17 08:42:00,
2013-03-17 03:52:00,9.0,7.0,-100.00,North,355,10.0,11.0,85,0.00,,,0.00,,2013-03-17 08:52:00,
2013-03-17 04:02:00,9.0,5.0,-100.00,North,0,9.0,11.0,85,0.00,,,0.00,,2013-03-17 09:02:00,
2013-03-17 04:12:00,8.0,5.0,-100.00,NNE,15,7.0,10.0,86,0.00,,,0.00,,2013-03-17 09:12:00,
2013-03-17 04:22:00,8.0,5.0,-100.00,NNE,15,9.0,10.0,86,0.00,,,0.00,,2013-03-17 09:22:00,
2013-03-17 04:32:00,8.0,5.0,-100.00,NNE,15,9.0,11.0,86,0.00,,,0.00,,2013-03-17 09:32:00,
2013-03-17 04:42:00,8.0,5.0,-100.00,NNE,15,9.0,11.0,86,0.00,,,0.00,,2013-03-17 09:42:00,
2013-03-17 04:53:00,8.0,5.0,-100.00,NNE,20,10.0,11.0,86,0.00,,,0.00,,2013-03-17 09:53:00,
2013-03-17 05:03:00,8.0,5.0,-100.00,NNE,20,9.0,10.0,86,0.00,,,0.00,,2013-03-17 10:03:00,
2013-03-17 05:13:00,7.0,3.0,-100.00,NNE,25,8.0,9.0,86,0.00,,,0.00,,2013-03-17 10:13:00,
2013-03-17 05:23:00,7.0,3.0,-100.00,NNE,25,9.0,9.0,87,0.00,,,0.00,,2013-03-17 10:23:00,
2013-03-17 05:33:00,6.0,3.0,-100.00,NNE,30,9.0,9.0,87,0.00,,,0.00,,2013-03-17 10:33:00,
2013-03-17 05:42:00,6.0,3.0,-100.00,NE,35,7.0,9.0,88,0.00,,,0.00,,2013-03-17 10:42:00,
2013-03-17 05:52:00,6.0,3.0,-100.00,NE,40,8.0,9.0,88,0.00,,,0.00,,2013-03-17 10:52:00,
2013-03-17 06:02:00,6.0,3.0,-100.00,NE,35,8.0,9.0,88,0.00,,,0.00,,2013-03-17 11:02:00,
2013-03-17 06:12:00,6.0,3.0,-100.00,NE,45,7.0,9.0,88,0.00,,,0.00,,2013-03-17 11:12:00,
2013-03-17 06:22:00,6.0,3.0,-100.00,NE,45,9.0,9.0,89,0.00,,,0.00,,2013-03-17 11:22:00,
2013-03-17 06:32:00,6.0,3.0,-100.00,NE,55,7.0,9.0,89,0.00,,,0.00,,2013-03-17 11:32:00,
2013-03-17 06:42:00,7.0,5.0,-100.00,NE,50,9.0,11.0,89,0.00,,,0.00,,2013-03-17 11:42:00,
2013-03-17 06:52:00,7.0,5.0,-100.00,NE,50,9.0,11.0,88,0.00,,,0.00,,2013-03-17 11:52:00,
2013-03-17 07:02:00,7.0,5.0,-100.00,NE,55,8.0,9.0,88,0.00,,,0.00,,2013-03-17 12:02:00,
2013-03-17 07:12:00,7.0,5.0,-100.00,NE,55,7.0,10.0,88,0.00,,,0.00,,2013-03-17 12:12:00,
2013-03-17 07:22:00,8.0,5.0,-100.00,ENE,60,9.0,11.0,87,0.00,,,0.00,,2013-03-17 12:22:00,
2013-03-17 07:32:00,6.0,3.0,-100.00,ENE,70,8.0,10.0,86,0.00,,,0.00,,2013-03-17 12:32:00,
2013-03-17 07:42:00,6.0,3.0,-100.00,ENE,65,7.0,9.0,86,0.00,,,0.00,,2013-03-17 12:42:00,
2013-03-17 07:52:00,7.0,3.0,-100.00,ENE,60,6.0,8.0,86,0.00,,,0.00,,2013-03-17 12:52:00,
2013-03-17 08:02:00,7.0,3.0,-100.00,ENE,65,6.0,6.0,86,0.00,,,0.00,,2013-03-17 13:02:00,
2013-03-17 08:12:00,6.0,3.0,-100.00,ENE,75,8.0,9.0,85,0.00,,,0.00,,2013-03-17 13:12:00,
2013-03-17 08:22:00,7.0,3.0,-100.00,ENE,70,8.0,9.0,84,0.00,,,0.00,,2013-03-17 13:22:00,
2013-03-17 08:32:00,8.0,5.0,-100.00,ENE,70,7.0,9.0,84,0.00,,,0.00,,2013-03-17 13:32:00,
2013-03-17 08:42:00,8.0,3.0,-100.00,East,80,8.0,9.0,83,0.00,,,0.00,,2013-03-17 13:42:00,
2013-03-17 08:52:00,9.0,5.0,-100.00,East,90,7.0,9.0,83,0.00,,,0.00,,2013-03-17 13:52:00,
2013-03-17 09:02:00,11.0,7.0,-100.00,East,100,9.0,10.0,81,0.00,,,0.00,,2013-03-17 14:02:00,
2013-03-17 09:12:00,11.0,7.0,-100.00,East,100,9.0,11.0,81,0.00,,,0.00,,2013-03-17 14:12:00,
2013-03-17 09:22:00,12.0,7.0,-100.00,East,100,9.0,11.0,79,0.00,,,0.00,,2013-03-17 14:22:00,
2013-03-17 09:32:00,12.0,7.0,-100.00,East,100,11.0,14.0,78,0.00,,,0.00,,2013-03-17 14:32:00,
2013-03-17 09:42:00,12.0,7.0,-100.00,East,100,14.0,17.0,77,0.00,,,0.00,,2013-03-17 14:42:00,
2013-03-17 09:52:00,13.0,7.0,-100.00,ESE,105,15.0,20.0,77,0.00,,,0.00,,2013-03-17 14:52:00,
2013-03-17 10:02:00,14.0,9.0,-100.00,ESE,105,10.0,14.0,77,0.00,,,0.00,,2013-03-17 15:02:00,
2013-03-17 10:12:00,14.0,9.0,-100.00,ESE,115,11.0,15.0,76,0.00,,,0.00,,2013-03-17 15:12:00,
2013-03-17 10:23:00,14.0,9.0,-100.00,ESE,120,11.0,14.0,75,0.00,,,0.00,,2013-03-17 15:23:00,
2013-03-17 10:33:00,15.0,9.0,-100.00,ESE,105,10.0,14.0,75,0.00,,,0.00,,2013-03-17 15:33:00,
2013-03-17 10:42:00,16.0,9.0,-100.00,ESE,115,10.0,12.0,74,0.00,,,0.00,,2013-03-17 15:42:00,
2013-03-17 10:52:00,16.0,9.0,-100.00,SE,135,9.0,14.0,73,0.00,,,0.00,,2013-03-17 15:52:00,
2013-03-17 11:03:00,17.0,10.0,-100.00,ESE,120,11.0,15.0,72,0.00,,,0.00,,2013-03-17 16:03:00,
2013-03-17 11:12:00,17.0,10.0,-100.00,SE,135,9.0,15.0,72,0.00,,,0.00,,2013-03-17 16:12:00,
2013-03-17 11:22:00,18.0,10.0,-100.00,SE,125,11.0,16.0,70,0.00,,,0.00,,2013-03-17 16:22:00,
2013-03-17 11:33:00,18.0,10.0,-100.00,ESE,120,10.0,16.0,70,0.00,,,0.00,,2013-03-17 16:33:00,
2013-03-17 11:42:00,19.0,10.0,-100.00,ESE,120,10.0,15.0,70,0.00,,,0.00,,2013-03-17 16:42:00,
2013-03-17 11:52:00,19.0,10.0,-100.00,ESE,115,12.0,17.0,69,0.00,,,0.00,,2013-03-17 16:52:00,
2013-03-17 12:02:00,20.0,10.0,-100.00,SE,140,14.0,19.0,68,0.00,,,0.00,,2013-03-17 17:02:00,
2013-03-17 12:12:00,21.0,12.0,-100.00,ESE,115,11.0,19.0,68,0.00,,,0.00,,2013-03-17 17:12:00,
2013-03-17 12:22:00,20.0,12.0,-100.00,ESE,120,12.0,16.0,67,0.00,,,0.00,,2013-03-17 17:22:00,
2013-03-17 12:33:00,21.0,12.0,-100.00,ESE,115,12.0,15.0,67,0.00,,,0.00,,2013-03-17 17:33:00,
2013-03-17 12:42:00,21.0,12.0,-100.00,ESE,115,12.0,15.0,66,0.00,,,0.00,,2013-03-17 17:42:00,
2013-03-17 12:52:00,22.0,12.0,-100.00,ESE,120,12.0,17.0,64,0.00,,,0.00,,2013-03-17 17:52:00,
2013-03-17 13:02:00,22.0,12.0,-100.00,SE,130,11.0,17.0,64,0.00,,,0.00,,2013-03-17 18:02:00,
2013-03-17 13:12:00,22.0,12.0,-100.00,SE,125,10.0,15.0,64,0.00,,,0.00,,2013-03-17 18:12:00,
2013-03-17 13:22:00,23.0,12.0,-100.00,ESE,115,12.0,16.0,64,0.00,,,0.00,,2013-03-17 18:22:00,
2013-03-17 13:32:00,23.0,12.0,-100.00,ESE,115,11.0,16.0,64,0.00,,,0.00,,2013-03-17 18:32:00,
2013-03-17 13:42:00,24.0,14.0,-100.00,ESE,115,11.0,14.0,63,0.00,,,0.00,,2013-03-17 18:42:00,
2013-03-17 13:52:00,24.0,14.0,-100.00,ESE,120,11.0,16.0,62,0.00,,,0.00,,2013-03-17 18:52:00,
2013-03-17 14:02:00,24.0,12.0,-100.00,SE,125,11.0,15.0,62,0.00,,,0.00,,2013-03-17 19:02:00,
2013-03-17 14:12:00,25.0,14.0,-100.00,SE,140,11.0,17.0,62,0.00,,,0.00,,2013-03-17 19:12:00,
2013-03-17 14:22:00,25.0,14.0,-100.00,SE,125,12.0,16.0,61,0.00,,,0.00,,2013-03-17 19:22:00,
2013-03-17 14:33:00,26.0,14.0,-100.00,SE,125,9.0,15.0,61,0.00,,,0.00,,2013-03-17 19:33:00,
2013-03-17 14:42:00,25.0,14.0,-100.00,SE,125,11.0,14.0,60,0.00,,,0.00,,2013-03-17 19:42:00,
2013-03-17 14:53:00,25.0,14.0,-100.00,ESE,120,13.0,17.0,60,0.00,,,0.00,,2013-03-17 19:53:00,
2013-03-17 15:02:00,25.0,14.0,-100.00,ESE,115,12.0,16.0,60,0.00,,,0.00,,2013-03-17 20:02:00,
2013-03-17 15:12:00,26.0,14.0,-100.00,SE,125,11.0,16.0,60,0.00,,,0.00,,2013-03-17 20:12:00,
2013-03-17 15:22:00,26.0,14.0,-100.00,SE,135,12.0,17.0,60,0.00,,,0.00,,2013-03-17 20:22:00,
2013-03-17 15:32:00,26.0,14.0,-100.00,ESE,120,13.0,19.0,59,0.00,,,0.00,,2013-03-17 20:32:00,
2013-03-17 15:42:00,27.0,14.0,-100.00,SE,125,12.0,17.0,59,0.00,,,0.00,,2013-03-17 20:42:00,
2013-03-17 15:52:00,26.0,14.0,-100.00,ESE,120,12.0,19.0,60,0.00,,,0.00,,2013-03-17 20:52:00,
2013-03-17 16:02:00,28.0,16.0,-100.00,SE,130,9.0,17.0,60,0.00,,,0.00,,2013-03-17 21:02:00,
2013-03-17 16:12:00,28.0,16.0,-100.00,SE,125,9.0,17.0,60,0.00,,,0.00,,2013-03-17 21:12:00,
2013-03-17 16:22:00,27.0,16.0,-100.00,SE,140,13.0,19.0,60,0.00,,,0.00,,2013-03-17 21:22:00,
2013-03-17 16:33:00,27.0,16.0,-100.00,SE,130,11.0,17.0,59,0.00,,,0.00,,2013-03-17 21:33:00,
2013-03-17 16:42:00,27.0,16.0,-100.00,ESE,120,13.0,18.0,59,0.00,,,0.00,,2013-03-17 21:42:00,
2013-03-17 16:52:00,28.0,16.0,-100.00,ESE,115,16.0,19.0,59,0.00,,,0.00,,2013-03-17 21:52:00,
2013-03-17 17:03:00,28.0,16.0,-100.00,ESE,120,11.0,18.0,59,0.00,,,0.00,,2013-03-17 22:03:00,
2013-03-17 17:12:00,28.0,16.0,-100.00,SE,135,13.0,20.0,60,0.00,,,0.00,,2013-03-17 22:12:00,
2013-03-17 17:23:00,28.0,16.0,-100.00,SE,125,11.0,16.0,59,0.00,,,0.00,,2013-03-17 22:23:00,
2013-03-17 17:33:00,29.0,16.0,-100.00,ESE,120,13.0,19.0,59,0.00,,,0.00,,2013-03-17 22:33:00,
2013-03-17 17:42:00,29.0,16.0,-100.00,ESE,110,10.0,17.0,59,0.00,,,0.00,,2013-03-17 22:42:00,
2013-03-17 17:52:00,29.0,16.0,-100.00,SE,125,11.0,17.0,59,0.00,,,0.00,,2013-03-17 22:52:00,
2013-03-17 18:02:00,28.0,16.0,-100.00,ESE,120,14.0,19.0,59,0.00,,,0.00,,2013-03-17 23:02:00,
2013-03-17 18:12:00,28.0,16.0,-100.00,ESE,120,11.0,17.0,59,0.00,,,0.00,,2013-03-17 23:12:00,
2013-03-17 18:22:00,28.0,16.0,-100.00,SE,140,11.0,16.0,59,0.00,,,0.00,,2013-03-17 23:22:00,
2013-03-17 18:32:00,28.0,16.0,-100.00,SE,125,10.0,16.0,60,0.00,,,0.00,,2013-03-17 23:32:00,
2013-03-17 18:42:00,28.0,16.0,-100.00,SE,125,11.0,18.0,60,0.00,,,0.00,,2013-03-17 23:42:00,
2013-03-17 18:52:00,28.0,16.0,-100.00,ESE,115,11.0,16.0,60,0.00,,,0.00,,2013-03-17 23:52:00,
2013-03-17 19:03:00,27.0,16.0,-100.00,SE,125,7.0,14.0,60,0.00,,,0.00,,2013-03-18 00:03:00,
2013-03-17 19:12:00,27.0,16.0,-100.00,SE,130,10.0,14.0,60,0.00,,,0.00,,2013-03-18 00:12:00,
2013-03-17 19:22:00,27.0,16.0,-100.00,ESE,120,7.0,12.0,62,0.00,,,0.00,,2013-03-18 00:22:00,
2013-03-17 19:33:00,26.0,16.0,-100.00,SE,125,7.0,10.0,62,0.00,,,0.00,,2013-03-18 00:33:00,
2013-03-17 19:42:00,26.0,16.0,-100.00,SE,125,7.0,10.0,64,0.00,,,0.00,,2013-03-18 00:42:00,
2013-03-17 19:52:00,25.0,16.0,-100.00,SE,130,7.0,9.0,65,0.00,,,0.00,,2013-03-18 00:52:00,
2013-03-17 20:01:00,24.0,16.0,-100.00,SE,135,9.0,12.0,68,0.00,,,0.00,,2013-03-18 01:01:00,
2013-03-17 20:12:00,23.0,16.0,-100.00,SE,145,12.0,15.0,72,0.00,,,0.00,,2013-03-18 01:12:00,
2013-03-17 20:22:00,25.0,18.0,-100.00,SSE,150,16.0,20.0,74,0.00,,,0.00,,2013-03-18 01:22:00,
2013-03-17 20:32:00,25.0,19.0,-100.00,SSE,150,17.0,21.0,76,0.00,,,0.00,,2013-03-18 01:32:00,
2013-03-17 20:42:00,24.0,19.0,-100.00,SSE,150,17.0,21.0,78,0.00,,,0.00,,2013-03-18 01:42:00,
2013-03-17 20:52:00,24.0,18.0,-100.00,SE,145,16.0,20.0,79,0.00,,,0.00,,2013-03-18 01:52:00,
2013-03-17 21:02:00,23.0,19.0,-100.00,SE,145,16.0,19.0,81,0.00,,,0.00,,2013-03-18 02:02:00,
2013-03-17 21:12:00,24.0,19.0,-100.00,SE,140,15.0,19.0,82,0.00,,,0.00,,2013-03-18 02:12:00,
2013-03-17 21:22:00,24.0,19.0,-100.00,SE,140,14.0,18.0,83,0.00,,,0.00,,2013-03-18 02:22:00,
2013-03-17 21:32:00,24.0,19.0,-100.00,SE,140,14.0,18.0,83,0.00,,,0.00,,2013-03-18 02:32:00,
2013-03-17 21:42:00,24.0,19.0,-100.00,SE,145,14.0,16.0,84,0.00,,,0.00,,2013-03-18 02:42:00,
2013-03-17 21:52:00,23.0,19.0,-100.00,SE,145,13.0,16.0,86,0.00,,,0.00,,2013-03-18 02:52:00,
2013-03-17 22:02:00,24.0,21.0,-100.00,SE,140,15.0,17.0,87,0.00,,,0.00,,2013-03-18 03:02:00,
2013-03-17 22:11:00,24.0,21.0,-100.00,SE,140,12.0,15.0,87,0.00,,,0.00,,2013-03-18 03:11:00,
2013-03-17 22:22:00,24.0,21.0,-100.00,SE,140,14.0,17.0,87,0.00,,,0.00,,2013-03-18 03:22:00,
2013-03-17 22:33:00,25.0,21.0,-100.00,SE,140,16.0,18.0,87,0.00,,,0.00,,2013-03-18 03:33:00,
2013-03-17 22:42:00,25.0,21.0,-100.00,SE,145,17.0,21.0,87,0.00,,,0.00,,2013-03-18 03:42:00,
2013-03-17 22:52:00,25.0,21.0,-100.00,SE,145,17.0,20.0,87,0.00,,,0.00,,2013-03-18 03:52:00,
2013-03-17 23:03:00,25.0,21.0,-100.00,SE,145,17.0,21.0,87,0.00,,,0.00,,2013-03-18 04:03:00,
2013-03-17 23:13:00,25.0,21.0,-100.00,SE,145,16.0,19.0,88,0.00,,,0.00,,2013-03-18 04:13:00,
2013-03-17 23:22:00,25.0,23.0,-100.00,SE,145,17.0,20.0,89,0.00,,,0.00,,2013-03-18 04:22:00,
2013-03-17 23:33:00,25.0,23.0,-100.00,SE,135,16.0,19.0,89,0.00,,,0.00,,2013-03-18 04:33:00,
2013-03-17 23:42:00,25.0,23.0,-100.00,SE,135,15.0,19.0,89,0.00,,,0.00,,2013-03-18 04:42:00,
2013-03-17 23:52:00,25.0,23.0,-100.00,SE,140,17.0,21.0,89,0.00,,,0.00,,2013-03-18 04:52:00,